Lancaster, CA

12:39 PM PST on December 05, 2019 (GMT -0800)
Gen Fox

Weather History for KWJF - October, 2019

Change the Weather History Date:

Wednesday, October 23, 2019

  Actual Average Record
Temperature  
Mean Temperature 62 °F 60 °F  
Max Temperature 86 °F 77 °F 93 °F (1959)
Min Temperature 39 °F 44 °F 30 °F (1984)
Degree Days  
Heating Degree Days 2    
Month to date heating degree days 94  
Since 1 July heating degree days 107  
Cooling Degree Days 0    
Month to date cooling degree days 10  
Year to date cooling degree days 1812  
Growing Degree Days 12 (Base 50)    
Moisture  
Dew Point 25 °F    
Average Humidity 28    
Maximum Humidity 51    
Minimum Humidity 10    
Precipitation  
Precipitation 0.00 in 0.01 in 0.30 in (1992)
Month to date precipitation 0.00 0.28  
Year to date precipitation 5.51 5.53  
Snow  
Snow 0.00 in - 0.00 in ()
Month to date snowfall 0.0  
Since 1 July snowfall 0.0  
Since 1 September snowfall 0.0  
Snow Depth 0.00 in    
Sea Level Pressure  
Sea Level Pressure 30.03 in    
Wind  
Wind Speed 4 mph ()    
Max Wind Speed 16 mph    
Max Gust Speed 24 mph    
Visibility 10.0 miles    
Events      
T = Trace of Precipitation, MM = Missing Value Source: Averaged Metar Reports

Daily Weather History Graph

Daily Weather History Graph

Search for Another Location

Airport or City:

Astronomy

Oct. 23, 2019 Rise Set
Actual Time 7:05 AM PDT 6:08 PM PDT
Civil Twilight 6:39 AM PDT 6:34 PM PDT
Nautical Twilight 6:10 AM PDT 7:03 PM PDT
Astronomical Twilight 5:40 AM PDT 7:33 PM PDT
Moon 1:47 AM PDT (10/23) 3:46 PM PDT (10/23)
Length of Visible Light 11h 54m
Length of Day
11h 03m
Waning Crescent, 25% of the Moon is Illuminated
Oct 23
Waning Crescent
Oct 27
New
Nov 4
First Quarter
Nov 12
Full
Nov 19
Last Quarter

Hourly Weather History & Observations

Time (PDT) Temp. Windchill Dew Point Humidity Pressure Visibility Wind Dir Wind Speed Gust Speed Precip Events Conditions
12:56 AM 55.0 °F - 30.0 °F 38% 30.07 in 10.0 mi WSW 6.9 mph - N/A   Clear
1:56 AM 51.1 °F - 28.0 °F 41% 30.07 in 10.0 mi West 5.8 mph - N/A   Clear
2:56 AM 48.0 °F - 28.0 °F 46% 30.05 in 10.0 mi West 5.8 mph - N/A   Clear
3:56 AM 46.9 °F - 28.0 °F 48% 30.04 in 10.0 mi Calm Calm - N/A   Clear
4:56 AM 46.0 °F - 26.1 °F 46% 30.03 in 10.0 mi Calm Calm - N/A   Clear
5:56 AM 42.1 °F - 25.0 °F 51% 30.05 in 10.0 mi Calm Calm - N/A   Clear
6:56 AM 39.9 °F 37.8 °F 23.0 °F 51% 30.06 in 10.0 mi NW 3.5 mph - N/A   Clear
7:56 AM 46.0 °F - 27.0 °F 47% 30.08 in 10.0 mi Calm Calm - N/A   Clear
8:56 AM 53.1 °F - 27.0 °F 37% 30.09 in 10.0 mi Calm Calm - N/A   Clear
9:56 AM 61.0 °F - 30.0 °F 31% 30.08 in 10.0 mi Calm Calm - N/A   Clear
10:56 AM 71.1 °F - 28.9 °F 21% 30.07 in 10.0 mi Calm Calm - N/A   Clear
11:56 AM 78.1 °F - 25.0 °F 14% 30.05 in 10.0 mi NE 8.1 mph - N/A   Clear
12:56 PM 81.0 °F - 24.1 °F 12% 30.01 in 10.0 mi ENE 8.1 mph - N/A   Clear
1:56 PM 82.9 °F - 24.1 °F 12% 29.98 in 10.0 mi ENE 9.2 mph - N/A   Clear
2:56 PM 84.9 °F - 23.0 °F 10% 29.96 in 10.0 mi ENE 15.0 mph 20.7 mph N/A   Clear
3:56 PM 84.9 °F - 23.0 °F 10% 29.96 in 10.0 mi ENE 12.7 mph 20.7 mph N/A   Clear
4:56 PM 84.0 °F - 23.0 °F 11% 29.95 in 10.0 mi East 6.9 mph - N/A   Clear
5:56 PM 80.1 °F - 25.0 °F 13% 29.94 in 10.0 mi ENE 9.2 mph - N/A   Clear
6:56 PM 70.0 °F - 21.9 °F 16% 29.98 in 10.0 mi NE 6.9 mph - N/A   Clear
7:56 PM 64.9 °F - 23.0 °F 20% 29.99 in 10.0 mi ENE 9.2 mph - N/A   Clear
8:56 PM 63.0 °F - 24.1 °F 23% 30.00 in 10.0 mi East 3.5 mph - N/A   Clear
9:56 PM 55.0 °F - 21.0 °F 27% 30.03 in 10.0 mi NW 3.5 mph - N/A   Clear
10:56 PM 52.0 °F - 19.9 °F 28% 30.04 in 10.0 mi North 8.1 mph - N/A   Clear
11:56 PM 55.0 °F - 21.9 °F 28% 30.04 in 10.0 mi NNW 4.6 mph - N/A   Clear